LIDE

Last updated on Fri Aug 22 2025 00:02:05 GMT+0000 (Coordinated Universal Time)

1 64869U 25154A 25232.70707607 .00002790 00000+0 28281-3 0 9999 2 64869 97.7126 298.1899 0006905 142.5438 217.6263 14.91680854 4164
UTC large
Height (km)
Speed (km/s)
/
Latitude / Longitude
Inclination (degrees)
Orbital Period (minutes)
Azimuth
Elevation
Range (km)
Doppler Factor

Next 0 passes for location: London (51.5072 / 0.1276)

Sorry there are no passes over London.
LIDE